This demonstration page uses our WeatherBlox Daily Observations layout. Learn more.

Left ArrowRight Arrow

47.50024, -111.30081

Hourly Observations for July 23, 2020

Temp ( °F °C ) Dew Point ( °F °C ) Humidity (%) Winds ( mph kmh ) Pressure ( in mb ) Visibility ( mi km ) Precip ( " mm )
12:53 am 00:53 Clear 74 23.3 47 8.3 38 38 SSE 10 17 29.67 1005 10 16 0.00 0.00
1:53 am 01:53 Cloudy 71 21.7 48 8.9 44 44 SSW 12 19 29.67 1005 10 16 0.00 0.00
2:53 am 02:53 Cloudy 70 21.1 49 9.4 47 47 SSW 10 17 29.67 1005 10 16 0.00 0.00
3:53 am 03:53 Partly Cloudy 70 21.1 48 8.9 46 46 SSW 8 13 29.66 1004 10 16 0.00 0.00
4:53 am 04:53 Cloudy 71 21.7 48 8.9 44 44 SSW 8 13 29.67 1005 10 16 0.00 0.00
5:53 am 05:53 Clear 71 21.7 48 8.9 44 44 SW 10 17 29.69 1006 10 16 0.00 0.00
6:53 am 06:53 Sunny 72 22.2 52 11.1 50 50 SSW 15 24 29.72 1006 10 16 0.00 0.00
7:53 am 07:53 Cloudy with Light Rain 68 20 55 12.8 63 63 SSW 10 17 29.75 1007 10 16 0.00 0.00
8:53 am 08:53 Cloudy 67 19.4 56 13.3 68 68 SE 7 11 29.77 1008 10 16 0.00 0.00
9:53 am 09:53 Cloudy 67 19.4 57 13.9 71 71 S 13 20 29.76 1008 10 16 0.00 0.00
10:53 am 10:53 Mostly Cloudy 68 20 56 13.3 65 65 S 13 20 29.75 1008 10 16 0.00 0.00
11:53 am 11:53 Mostly Sunny 71 21.7 57 13.9 61 61 SSE 16 26 29.75 1007 10 16 0.00 0.00
12:53 pm 12:53 Sunny 79 26.1 57 13.9 47 47 S 17 28 29.72 1006 10 16 0.00 0.00
1:53 pm 13:53 Sunny 84 28.9 57 13.9 40 40 S 10 17 29.69 1005 10 16 0.00 0.00
2:53 pm 14:53 Sunny 83 28.3 53 11.7 36 36 S 8 13 29.67 1005 10 16 0.00 0.00
3:31 pm 15:31 Partly Cloudy with Nearby Thunderstorms 83 28.3 55 12.8 38 38 VRB 3 6 29.53 1000 10 16 0.00 0.00
3:53 pm 15:53 Mostly Cloudy with Nearby Thunderstorms 70 21.1 54 12.2 57 57 NW 18 30 29.72 1007 10 16 0.00 0.00
4:00 pm 16:00 Windy with Storms Likely 68 20 56 13.3 65 65 WNW 21 33 29.66 1005 9 14 0.00 0.00
4:10 pm 16:10 Cloudy with Strong Thunderstorms 63 17.2 57 13.9 81 81 NNW 15 24 29.71 1006 2 3 0.05 1.27
4:19 pm 16:19 Cloudy with Thunderstorms 63 17.2 56 13.3 78 78 N 7 11 29.71 1006 3 5 0.11 2.79
4:27 pm 16:27 Cloudy with Nearby Thunderstorms 63 17.2 58 14.4 84 84 SW 10 17 29.76 1008 3 4 0.14 3.56
4:41 pm 16:41 Cloudy with Thunderstorms 63 17.2 57 13.9 81 81 S 14 22 29.78 1008 5 8 0.18 4.57
4:53 pm 16:53 Cloudy with Thunderstorms 62 16.7 57 13.9 84 84 S 9 15 29.82 1010 6 10 0.18 4.57
5:02 pm 17:02 Cloudy with Nearby Thunderstorms 63 17.2 57 13.9 81 81 SE 8 13 29.76 1008 9 14 0.01 0.25
5:09 pm 17:09 Cloudy with Light Rain 63 17.2 56 13.3 78 78 SSE 10 17 29.76 1008 8 13 0.01 0.25
5:53 pm 17:53 Cloudy with Light Rain 62 16.7 57 13.9 84 84 SSW 6 9 29.80 1009 8 13 0.06 1.52
6:53 pm 18:53 Partly Cloudy 64 17.8 57 13.9 78 78 SSW 8 13 29.80 1009 10 16 0.00 0.00
7:53 pm 19:53 Mostly Cloudy 65 18.3 57 13.9 76 76 SSW 10 17 29.80 1009 10 16 0.00 0.00
8:53 pm 20:53 Cloudy 65 18.3 56 13.3 73 73 S 6 9 29.79 1009 10 16 0.00 0.00
9:53 pm 21:53 Clear 65 18.3 53 11.7 66 66 SSW 15 24 29.78 1008 10 16 0.00 0.00
10:53 pm 22:53 Clear 62 16.7 53 11.7 73 73 SW 13 20 29.79 1009 10 16 0.00 0.00
11:53 pm 23:53 Clear 61 16.1 52 11.1 72 72 SSW 12 19 29.78 1009 10 16 0.00 0.00

Powered by AerisWeather